GFSWCAN_con_3kmhel_174.txt.gz
Helicity
30 23 18 21 20 21 25 35 44 47 46 48 47 49 44 45 47 100 138 126 157 155 59 83 59 67 61 103 94 -24 8 55 84 95 157 102 116 75 78 73 63 133 97 108 8 -10 71 67 67 82 75 45 137 134
27 10 34 36 35 31 33 36 35 55 69 60 51 49 45 40 36 64 80 82 97 129 122 87 32 -28 -1 5 -118 -124 -60 65 70 70 106 124 173 176 158 164 144 115 95 112 120 87 63 52 42 69 142 167 226 138
25 31 33 28 35 44 32 32 48 67 67 78 87 38 43 33 27 54 45 56 84 116 9 -0 -4 17 -9 -6 67 74 56 93 84 144 166 118 -4 36 50 65 13 41 57 80 2 40 48 72 55 97 163 160 123 87
20 26 26 23 42 22 20 42 55 60 49 47 38 46 60 7 9 5 23 39 40 30 49 17 33 -16 -21 7 43 26 3 4 49 110 110 65 27 25 1 18 4 57 61 95 93 14 33 56 159 102 36 109 100 125
26 29 26 27 19 -21 19 36 48 52 50 22 -25 27 4 2 6 10 19 19 26 32 16 33 68 28 -0 27 26 15 7 31 24 37 52 30 32 27 32 19 -32 61 -2 18 -119 -48 104 3 41 109 110 54 80 127
28 23 21 11 -2 17 34 45 30 30 30 4 -12 -12 -10 -7 13 31 34 19 20 43 28 -7 44 30 24 -9 1 13 48 41 75 53 83 54 40 51 29 -15 -46 15 4 130 64 70 66 86 166 94 87 152 82 283
33 15 14 19 36 50 47 21 9 12 5 -0 10 12 9 11 20 35 49 48 78 62 48 17 2 5 3 8 31 26 36 73 83 95 112 69 49 57 15 -21 17 3 9 42 96 83 67 96 97 96 106 175 238 67
24 12 6 18 45 50 33 16 15 16 16 21 26 28 26 31 47 20 6 27 38 55 54 47 16 -5 37 73 68 80 89 84 132 148 155 81 32 22 -81 3 -7 -30 -12 43 30 87 127 130 103 114 154 274 142 66
-3 -14 -19 21 43 45 32 22 20 29 37 39 47 46 38 32 11 18 48 65 31 35 -10 -64 -63 -75 -60 7 100 63 85 -91 55 -24 -0 95 37 -103 -36 -18 -42 -26 19 19 52 157 98 76 97 151 160 32 27 159
-23 -28 -7 28 41 48 30 16 21 38 43 55 14 8 -3 9 35 81 16 -44 -62 -72 -86 -53 -43 -54 -31 -22 -39 -62 -63 -46 -66 53 190 159 183 191 104 24 -24 45 59 33 147 116 83 109 81 78 1 47 134 149
-25 -29 9 43 48 48 18 11 23 40 38 -4 -0 4 1 -1 -9 -19 -36 -47 -77 -80 -65 7 75 115 28 -0 -23 -27 -55 -76 -25 -23 108 44 62 93 88 108 32 -9 19 -4 -8 64 63 55 10 9 31 75 109 129
-17 -28 16 50 51 43 3 15 32 12 14 5 10 -5 -14 -6 -19 -27 -35 -34 -28 5 9 13 -7 -20 -42 -27 -58 -110 -81 -83 -21 10 -45 18 20 24 -33 18 36 -11 -41 40 174 97 19 11 40 33 74 147 163 184
-3 -21 25 47 38 36 5 26 9 5 -6 7 -0 -7 5 -16 -4 -7 10 -3 8 -20 -18 -34 -31 -1 -11 4 -44 -54 -48 -16 -25 18 12 38 -7 -27 42 107 98 113 157 167 82 4 -2 39 45 119 218 249 268 250
32 -1 29 38 28 31 3 4 -28 58 53 13 -29 19 -0 -17 -7 16 6 -23 -57 -14 36 32 104 -5 -1 -3 -25 -18 -19 3 -7 6 25 16 10 44 37 20 11 26 35 46 11 124 187 242 278 310 294 258 247 218
-7 4 16 17 25 10 -6 -13 4 59 27 6 -8 12 -3 -6 -17 -16 -0 15 -25 -5 74 57 6 -21 -21 -17 -38 -22 -45 -37 -36 -30 21 15 14 48 77 77 72 109 104 133 189 258 283 281 297 257 209 186 184 173
4 1 2 4 15 -9 -8 41 58 56 3 -4 -13 3 14 -0 -40 -43 -22 9 -18 -17 11 26 -7 -12 -13 -16 -35 -34 -23 -30 -16 8 9 -6 22 24 12 62 131 113 122 158 189 192 188 191 196 179 168 147 141 143
58 92 -22 -7 5 -1 -4 88 52 5 7 -6 2 -18 9 -1 4 -13 -29 16 -10 -12 4 -4 -23 -5 20 -29 -22 -36 9 28 57 45 17 -7 47 55 48 84 82 84 114 124 130 129 143 153 161 163 151 122 127 131
9 -5 2 -2 -7 -25 55 43 25 2 -4 -3 13 -27 -46 -7 14 3 -34 -15 -24 -23 -21 -2 14 10 -0 -7 3 16 15 21 31 14 25 41 61 49 47 74 78 83 89 93 102 112 122 118 116 105 119 126 140 141
-7 -9 -5 -10 -6 46 26 9 -0 -12 16 -1 3 -8 -7 -1 20 -2 -14 -22 -46 -77 -21 30 43 42 27 42 14 15 24 44 35 36 51 49 36 58 78 94 101 82 81 78 79 70 63 54 86 89 103 99 114 121
28 26 -7 -5 31 27 18 -8 5 3 17 15 20 -2 -32 -1 -4 -5 -29 -57 -56 41 78 110 94 79 81 68 39 8 25 39 30 26 37 38 45 61 68 82 71 70 79 81 88 88 105 117 87 96 94 101 128 131
5 -6 -10 -4 5 -17 -10 -4 15 -7 -9 9 -5 -24 -17 -11 -22 -42 -47 75 85 129 112 101 88 95 107 62 -9 -20 31 29 21 30 35 36 39 66 91 95 77 77 86 84 89 90 89 97 105 119 131 160 153 151
15 23 6 -7 -6 -17 -8 -6 14 12 -3 7 -7 -29 -26 1 -14 16 74 98 111 112 101 55 69 117 85 54 23 11 39 31 31 55 70 62 52 62 69 80 82 87 94 87 90 92 107 133 151 138 143 162 172 164
20 43 41 39 2 -1 -2 24 5 -7 -23 -18 -1 -6 -2 22 62 73 55 75 92 77 105 117 130 146 116 99 62 39 11 16 23 38 56 53 51 45 60 78 88 95 101 91 115 113 162 157 128 124 146 144 142 154
46 106 82 57 41 49 49 40 31 32 36 30 23 34 34 62 83 71 79 89 58 110 86 97 89 79 95 82 63 48 28 29 51 54 43 80 96 95 90 100 92 85 90 118 111 137 138 121 113 110 113 100 105 136
35 40 82 60 51 41 37 48 58 71 76 46 55 43 62 64 56 49 59 51 81 97 74 86 59 54 53 59 83 105 56 49 62 80 82 83 94 102 109 102 108 133 136 141 130 114 105 102 80 82 85 82 93 105
31 56 46 48 50 47 60 47 36 38 52 54 38 59 69 55 52 42 88 92 43 47 51 56 56 55 62 92 101 72 50 51 71 82 93 111 98 100 107 111 116 104 83 104 107 96 83 73 66 72 81 72 89 103
90 102 91 80 72 60 53 34 38 45 39 26 49 66 38 39 25 99 78 60 42 28 10 25 34 45 67 119 135 124 106 118 112 94 107 125 128 87 77 85 80 89 115 110 77 58 66 64 65 67 75 93 104 131
116 106 98 78 74 83 93 90 93 74 74 143 96 90 83 95 159 112 64 27 -0 -5 -30 -28 4 43 80 145 160 172 166 145 181 178 181 174 159 161 175 191 187 148 105 75 59 57 68 71 71 73 77 111 148 151
95 95 78 84 82 79 91 103 126 168 201 153 156 161 153 196 122 32 1 18 -4 -5 17 28 42 67 125 140 104 102 107 96 94 80 70 96 128 146 151 141 119 104 82 88 90 86 87 87 84 92 112 115 127 146
74 77 69 92 116 101 112 149 142 159 159 146 131 121 103 91 81 65 34 13 17 20 33 50 51 69 79 92 94 91 84 78 89 92 87 103 116 133 101 84 79 82 86 86 108 123 132 132 131 125 131 164 183 178
61 82 82 76 97 86 115 114 85 93 111 116 122 148 127 96 81 80 106 120 90 61 45 44 50 65 79 90 103 102 113 120 127 151 166 166 146 117 90 88 87 88 88 107 102 98 105 108 117 137 154 170 207 248
78 81 85 66 60 77 74 85 98 91 82 90 102 105 103 109 93 106 153 108 65 54 95 77 54 54 73 103 121 165 152 128 138 119 111 122 112 105 105 110 104 101 120 113 97 107 100 123 135 139 156 193 213 270
80 74 61 74 83 77 115 108 115 102 88 79 79 92 88 73 72 126 85 98 71 48 68 87 116 163 49 78 105 143 135 131 123 116 117 110 104 101 107 104 105 116 118 112 119 117 117 139 143 173 197 229 274 277

GFSWCAN_con_3kmhel_177.txt.gz
Helicity
2 5 9 23 30 27 22 23 27 31 36 47 61 68 59 46 40 92 114 125 167 161 52 79 59 88 90 116 113 113 5 -18 47 67 79 74 145 69 52 65 69 71 95 109 138 69 -85 -18 21 27 -4 -16 34 81
19 30 35 34 37 39 37 29 25 35 40 45 51 54 44 45 41 72 119 105 109 126 115 70 40 44 64 58 98 88 107 79 71 22 36 147 129 93 91 62 95 106 110 130 138 116 107 73 49 29 40 39 48 55
34 36 35 40 47 44 48 41 39 50 45 52 64 50 45 46 41 79 103 93 76 89 33 69 29 175 123 108 80 -15 -23 34 14 21 -9 86 135 124 85 49 12 35 44 64 80 58 66 36 60 37 77 80 96 99
28 28 36 36 44 39 37 38 41 46 49 57 51 53 82 68 26 46 85 90 108 61 -18 -26 -9 -6 12 62 56 15 5 22 -57 5 201 110 62 47 49 20 48 44 40 33 21 39 48 42 44 30 82 146 182 142
25 25 41 41 32 31 34 26 28 48 50 38 34 29 23 28 23 31 53 42 102 53 -25 -38 20 76 25 1 15 145 117 69 29 12 4 35 32 30 42 57 47 129 98 68 22 41 97 52 13 -4 102 111 -88 147
37 35 40 44 28 38 19 -4 35 43 40 32 18 14 -13 -8 28 51 25 31 75 117 20 -4 11 21 -1 -27 138 19 16 41 36 64 47 71 99 71 56 84 69 72 20 61 -13 -11 8 -56 -56 34 49 37 135 164
36 38 38 31 26 -2 6 23 36 23 13 9 -14 -42 -18 17 44 52 39 36 52 37 74 3 -7 3 32 16 18 65 85 79 72 82 71 66 99 122 135 112 60 26 21 14 34 87 7 84 62 58 11 130 218 399
29 39 32 21 13 25 37 35 22 13 5 -6 -5 9 23 40 43 7 8 9 27 -6 23 -0 -23 -26 15 1 1 63 76 93 115 96 140 121 89 128 93 154 133 53 40 44 -2 126 106 132 173 139 146 152 224 329
10 33 28 22 10 31 40 33 23 18 20 24 34 43 57 65 53 39 -8 42 56 29 -42 -41 -53 -89 40 -3 14 67 90 -26 10 46 112 117 42 -73 125 47 48 30 17 -8 41 137 156 169 179 172 172 143 188 174
-4 9 -1 -25 -10 35 40 30 23 34 50 49 45 52 -18 -1 -29 42 24 -48 -59 -56 -33 -34 -20 31 -19 -20 -116 -56 -71 -80 -104 -93 -77 -118 37 180 205 193 122 65 29 40 150 131 128 152 127 117 112 180 124 174
11 1 -20 -25 14 33 34 28 37 55 50 12 -10 6 -5 -8 -24 -11 -18 -23 -30 -9 8 65 109 112 11 70 57 -49 -57 -22 7 -23 20 78 178 38 13 48 62 33 -12 -22 51 114 167 103 78 86 70 51 152 199
-0 -3 -25 -7 15 27 33 32 66 94 28 -2 -7 -9 -20 -12 -7 -8 -7 -16 7 35 27 -17 -39 -0 -1 36 21 -24 -25 -68 -14 5 40 121 6 21 2 13 40 84 119 -3 45 191 148 96 80 46 75 122 166 231
17 -38 -23 14 26 29 36 38 48 -1 -4 3 -1 -14 -15 -17 -12 13 21 24 6 8 -4 -45 -18 -18 4 59 -22 -33 -52 -13 -40 75 108 45 -46 -89 -54 4 4 59 40 154 182 157 133 -3 12 87 200 220 252 264
11 -49 4 18 33 37 20 17 -18 32 27 19 -2 11 -9 -10 -20 -25 14 5 58 66 98 134 131 59 8 4 -20 10 3 11 26 107 116 -22 4 14 -27 10 23 125 159 156 92 57 27 115 180 206 256 261 271 227
-21 -9 22 30 35 31 -7 -18 -8 58 34 20 3 25 13 7 -13 -6 75 70 16 -33 -16 79 86 12 -3 -13 -15 -27 -33 -11 11 3 -47 -37 -25 -4 32 56 57 53 91 79 18 77 202 230 232 213 194 195 213 210
-15 16 7 34 25 2 -27 65 65 60 7 -1 2 21 16 6 -4 -30 -32 -18 -53 -60 -24 53 50 6 17 -0 1 -14 -26 -14 -30 -31 39 -22 -22 14 -1 45 57 65 76 121 162 226 255 242 220 196 170 156 155 157
-37 121 -0 14 11 -8 6 102 62 13 11 17 14 -3 19 38 62 47 -14 -19 -44 -1 33 15 8 -20 -34 -28 -24 25 10 -35 24 7 -22 -33 -35 -0 32 80 69 64 87 104 136 164 186 177 181 173 160 114 136 141
5 -13 7 11 3 -13 67 56 13 -2 7 26 41 55 2 3 22 20 -6 -13 -30 -20 -13 -6 -27 -13 -7 -5 16 37 -42 66 96 104 64 14 -2 2 40 14 26 68 93 108 117 114 117 120 126 120 131 129 152 140
13 3 27 7 16 74 26 17 -1 10 10 11 33 19 -1 15 18 15 1 -19 -26 -34 -32 -14 62 81 59 79 75 70 56 43 45 88 69 45 47 33 39 60 75 91 95 92 84 76 66 75 98 108 119 117 125 119
57 52 31 11 25 20 2 -9 -9 8 36 10 17 32 4 42 17 -7 -29 -43 -44 -8 102 130 143 122 87 54 75 85 54 12 45 85 57 49 49 53 42 47 47 68 80 66 68 72 88 96 78 98 96 106 126 111
6 -12 28 18 13 36 -0 -16 2 -23 2 11 -22 -27 -20 -21 -11 -19 -22 22 41 135 117 152 143 85 94 96 94 87 45 18 26 41 34 56 47 39 37 56 62 59 66 68 72 72 84 80 90 85 91 110 96 107
-22 42 -4 -9 5 -12 -21 -13 -3 10 -2 -15 -13 -43 -28 -20 -16 -1 27 94 49 74 102 98 77 105 115 87 58 66 52 24 27 36 57 72 54 42 55 69 63 63 60 52 66 86 110 139 134 130 150 145 143 141
52 47 7 -10 20 29 13 59 29 23 -11 -27 -11 -15 -11 14 16 46 18 73 94 90 91 117 91 99 103 89 100 63 41 16 22 48 40 40 54 54 59 47 62 67 75 80 93 145 163 147 143 147 158 154 155 145
57 56 64 64 104 97 104 81 59 56 61 78 58 30 27 42 63 53 65 66 56 99 52 29 34 34 50 53 47 40 48 36 28 55 61 40 46 60 61 57 89 93 97 122 156 162 155 147 135 128 129 125 123 121
57 36 56 54 84 85 61 50 68 75 69 50 52 49 53 70 59 60 83 99 67 42 30 14 27 32 53 52 52 79 74 65 45 53 46 70 85 96 97 103 110 108 150 158 147 144 143 128 107 115 101 86 97 105
53 64 92 73 73 68 63 66 55 57 76 70 55 50 88 70 56 22 98 102 72 57 56 53 56 72 54 48 54 103 84 76 79 58 65 89 77 97 109 127 141 128 140 161 153 125 117 110 99 94 81 78 79 101
113 123 122 115 115 112 109 87 79 76 76 54 61 93 76 66 18 107 101 91 48 5 -18 -26 -16 -24 -29 -30 38 93 93 94 84 69 113 122 129 103 110 110 103 103 122 131 121 107 120 109 77 79 84 81 78 88
145 143 130 107 98 93 104 104 81 78 78 151 163 149 103 104 165 125 65 26 -17 -44 -79 -54 -15 23 28 20 64 150 150 129 147 176 196 180 162 161 164 143 127 128 128 115 127 135 112 88 77 84 88 82 77 81
148 138 137 105 95 86 94 109 113 137 190 174 156 170 178 186 119 84 15 -4 -34 -27 -3 14 17 25 45 57 96 147 130 127 129 123 108 122 123 122 139 166 169 167 169 184 157 110 88 86 85 88 92 89 84 94
168 134 117 125 139 118 107 153 171 143 122 126 141 131 103 92 99 114 121 122 116 98 93 86 67 62 58 55 72 73 92 84 89 96 94 91 95 117 131 155 187 190 184 167 149 133 129 128 122 116 106 97 101 133
142 149 170 162 145 102 86 93 91 68 84 104 121 146 132 118 118 144 192 142 117 102 107 109 79 56 67 70 62 63 82 95 94 99 92 89 120 139 157 157 152 148 139 131 118 117 125 130 132 131 142 153 157 192
150 149 154 146 127 90 73 88 92 108 132 125 114 122 100 106 107 169 152 115 103 105 91 49 60 52 84 125 85 60 59 92 125 142 138 150 163 180 165 152 149 132 129 122 104 101 106 129 144 150 165 189 217 241
130 108 99 111 133 120 146 114 89 66 56 76 102 80 72 84 117 151 95 80 45 45 42 39 56 48 55 84 108 48 61 90 108 127 134 138 148 158 148 140 134 128 119 104 99 96 112 129 134 157 191 216 236 267

GFSWCAN_con_3kmhel_180.txt.gz
Helicity
27 16 3 6 3 14 43 49 37 33 33 39 45 47 51 57 62 118 113 113 129 140 86 97 103 108 137 113 105 104 47 59 93 82 98 94 107 108 123 117 135 85 62 58 57 23 -3 -36 40 50 6 67 46 1
-0 2 7 15 22 38 22 19 18 14 18 21 29 40 55 61 50 94 133 117 131 152 91 85 69 51 60 68 127 142 155 130 135 117 122 122 105 67 84 104 56 94 81 53 81 68 32 37 47 3 -23 -4 -8 12
11 19 27 33 28 32 38 37 36 30 24 27 31 37 42 45 47 91 122 106 141 113 76 72 53 112 105 128 219 177 159 165 131 153 80 75 70 101 41 32 49 66 93 61 68 46 17 35 20 16 24 34 15 31
23 27 34 35 33 43 48 54 41 27 29 35 28 39 50 46 55 92 118 101 126 93 67 -15 33 37 1 -37 26 78 88 83 78 147 98 41 -32 110 128 73 57 64 82 64 50 16 36 48 79 84 63 61 37 49
16 29 27 28 40 41 38 33 26 16 25 25 42 39 33 36 49 80 84 63 98 104 41 -7 -41 45 45 30 80 195 74 41 -10 39 58 94 71 28 58 91 33 129 133 129 82 74 96 27 86 93 52 41 -1 113
34 27 23 29 50 34 33 31 17 14 31 37 29 22 26 22 66 70 34 36 84 131 -17 -14 -13 59 114 18 32 71 152 75 126 95 38 21 85 73 36 48 59 107 116 119 67 50 49 47 43 106 70 78 110 19
29 24 26 31 40 34 39 17 -5 23 35 32 22 25 10 3 31 30 21 29 34 32 39 8 -3 6 11 17 22 43 139 156 124 113 76 69 95 85 86 52 105 126 129 104 94 97 43 69 61 69 53 49 114 74
38 43 30 38 30 18 -2 4 22 36 18 12 10 -2 4 23 31 6 2 15 79 -1 -45 -36 5 8 25 17 7 15 35 115 100 85 135 116 110 164 59 167 73 69 60 41 68 91 92 60 103 87 124 154 184 241
42 28 37 35 22 9 21 30 34 28 26 24 33 54 54 47 40 25 23 42 104 40 -76 -52 -22 10 47 18 2 16 16 49 101 138 162 163 174 155 285 235 186 155 145 95 71 86 44 118 109 108 133 152 214 268
40 31 10 16 13 13 30 36 33 37 44 59 54 46 13 2 1 29 11 -32 -40 -7 2 18 48 67 -48 3 -18 -37 -0 -50 -86 -4 65 -10 90 220 162 72 61 48 87 50 -100 96 114 94 70 140 141 155 142 187
21 3 8 12 -2 3 23 29 41 62 85 44 8 -17 -10 1 -31 -29 -17 -12 -29 -6 20 59 92 131 -10 44 17 -54 -49 -82 1 -20 47 14 51 42 108 1 47 99 9 -15 -39 86 21 55 149 152 177 204 167 142
22 8 9 5 -20 14 27 48 74 66 -0 -6 -21 -17 -17 -20 -8 4 17 4 20 43 29 48 24 15 -14 -53 -40 -27 -26 -59 36 -17 35 172 61 44 -1 -19 -27 -7 42 47 58 135 119 93 150 105 159 90 99 104
32 11 3 -14 5 28 41 51 20 21 15 12 -9 -1 1 3 6 28 61 63 65 68 120 133 107 68 20 74 -10 2 3 48 -34 75 138 63 -54 -14 -26 -39 -8 24 28 -17 8 119 151 178 141 151 103 120 130 136
14 4 -26 10 15 13 34 19 -23 54 22 4 11 31 8 14 -6 12 17 43 110 137 168 115 109 42 39 28 -25 26 19 -4 103 111 35 -2 -50 -24 -23 -36 -11 26 77 59 90 126 145 123 54 50 115 113 128 116
-13 -40 -16 -2 9 21 5 -13 -15 51 14 26 24 43 34 6 2 24 63 36 8 6 35 55 135 58 8 -6 -23 -25 -12 23 7 -12 -29 -5 -38 -36 -31 -8 -4 45 60 119 127 114 97 60 77 106 123 145 163 156
-51 -20 -54 14 15 -0 -24 57 55 47 19 4 7 10 11 44 76 39 1 -4 -65 -18 47 67 55 25 7 -9 -16 -15 -37 -26 -31 -36 -4 4 -35 -49 -9 1 54 29 67 84 87 65 89 95 113 129 139 109 102 128
-45 80 -2 13 13 30 42 86 50 26 11 16 7 -8 18 43 112 89 14 31 -25 -4 8 33 34 -21 -26 -36 -37 19 -23 -19 -58 -38 64 89 2 -29 -14 29 46 86 107 78 85 124 154 158 170 151 122 67 107 93
62 23 35 35 50 38 107 50 24 8 16 5 37 63 28 61 66 87 63 32 -1 -12 -15 -11 -6 5 -32 2 -6 52 38 5 46 17 42 87 54 -34 -13 39 81 93 71 73 101 128 126 141 130 116 129 113 117 96
49 32 52 48 83 77 26 15 -6 1 17 4 41 77 39 73 88 73 26 -5 2 28 -36 -24 27 80 84 76 40 15 7 44 65 44 63 77 41 29 54 37 24 42 59 67 70 73 77 72 85 95 94 85 88 75
60 46 29 8 36 21 21 7 7 15 17 10 45 38 -4 7 19 16 -16 -47 84 30 59 73 106 96 80 28 9 25 48 66 84 -19 -22 -0 23 48 52 33 28 46 60 55 66 88 100 99 80 78 72 73 99 76
9 6 -12 6 1 6 14 -7 -9 -18 -15 27 -24 -5 7 38 27 20 13 71 77 63 46 94 83 58 43 54 57 65 76 76 66 55 -20 -13 35 40 24 10 65 62 42 44 53 51 61 56 55 62 75 70 83 95
1 20 -2 6 3 -3 -14 -0 13 31 47 46 18 2 3 18 17 21 25 50 29 32 57 62 56 46 38 53 60 54 41 44 35 37 16 64 64 64 24 8 39 25 41 37 50 54 54 61 71 83 88 84 98 110
70 51 37 61 12 16 16 91 80 91 47 31 50 22 7 22 11 48 21 36 35 36 44 44 2 -27 15 39 51 47 52 39 35 25 29 47 50 53 56 25 28 44 48 51 79 92 89 89 99 117 122 125 123 119
52 56 63 61 99 96 125 117 103 76 63 77 62 27 23 24 55 68 67 67 104 50 55 81 59 71 73 55 63 61 70 63 50 39 40 55 52 54 60 29 24 47 74 93 116 125 122 125 138 141 137 144 136 133
57 43 82 76 77 85 82 72 64 78 72 55 64 64 50 75 88 86 78 104 121 117 97 84 59 44 47 54 44 35 46 79 62 52 59 68 47 60 64 51 54 84 134 150 144 162 153 148 132 125 134 135 124 111
69 76 109 98 101 109 90 98 69 56 59 60 53 47 94 102 106 58 97 144 139 72 39 4 -3 17 35 19 12 11 10 58 72 75 91 78 63 72 77 71 73 86 118 146 194 161 160 156 140 125 121 114 99 106
131 122 153 168 154 149 142 128 108 111 100 89 80 103 104 90 56 105 112 65 21 -12 -51 -101 -90 -71 -53 -37 3 36 42 68 81 77 81 77 82 57 82 90 82 107 147 154 144 147 157 147 133 117 112 101 96 91
145 169 169 145 158 144 141 134 105 92 71 112 159 155 114 117 130 135 86 34 -52 -88 -65 -81 -118 -76 -15 28 40 51 60 101 124 127 119 113 96 81 69 106 132 119 119 117 153 169 160 133 118 120 118 105 95 96
178 182 217 165 162 160 151 154 157 167 210 206 174 172 181 168 118 75 1 -28 21 75 65 53 42 44 61 89 79 88 96 104 127 106 92 121 121 89 91 89 109 126 155 174 147 135 125 135 129 118 95 87 76 86
174 190 183 170 194 182 146 134 168 149 117 110 121 131 98 91 63 67 105 103 100 92 98 109 85 64 66 68 77 93 97 106 114 90 67 102 123 86 90 101 118 125 140 135 138 130 138 135 136 117 103 103 102 100
175 189 192 184 175 153 126 113 87 47 58 76 93 140 125 112 128 126 139 101 88 94 92 93 82 61 85 99 85 85 94 68 69 99 95 94 83 89 115 124 133 164 168 171 190 163 139 130 112 104 104 103 98 114
144 163 159 142 103 115 113 107 115 135 123 134 113 159 147 149 120 115 92 95 96 94 87 90 86 104 71 83 84 70 56 88 83 84 98 105 120 129 137 164 188 188 196 200 150 138 139 139 131 125 125 144 151 166
182 153 136 104 110 96 97 105 96 79 94 93 92 105 86 81 83 78 61 70 50 40 54 61 64 81 76 48 80 122 132 94 62 56 87 92 106 141 187 179 155 165 167 144 131 122 127 132 138 152 168 177 183 207

GFSWCAN_con_3kmhel_183.txt.gz
Helicity
53 56 59 62 61 53 43 30 32 46 58 55 52 46 47 50 62 156 111 137 190 150 73 90 83 103 105 108 109 77 71 85 135 148 157 143 138 135 135 99 107 115 115 125 138 138 112 72 83 50 60 52 26 30
52 50 47 42 19 11 7 15 36 39 32 28 25 21 25 29 41 117 179 172 152 182 135 88 89 85 74 69 119 138 142 131 139 147 140 145 152 164 168 75 72 84 192 144 146 157 112 136 30 7 38 -25 41 58
33 21 5 5 7 8 16 32 37 30 23 14 10 13 15 24 54 101 146 139 123 118 131 125 99 134 120 123 190 168 158 153 176 228 120 113 122 147 123 81 -2 81 107 146 68 56 34 46 20 30 58 59 50 45
-4 3 6 12 25 35 38 37 33 33 29 21 19 24 28 36 47 73 119 116 134 111 102 63 39 71 64 77 121 150 82 144 164 177 170 152 209 142 107 78 26 60 71 102 93 15 23 32 53 67 56 93 90 56
2 10 16 28 33 31 30 43 40 29 12 6 21 39 44 55 53 113 100 88 112 110 85 12 -21 87 96 33 55 81 118 93 79 149 173 143 81 48 -5 25 26 103 68 104 71 75 80 50 39 55 33 62 71 84
4 15 23 26 28 28 37 33 22 12 8 23 32 46 59 59 102 79 30 33 62 95 66 23 3 126 90 -24 20 101 148 141 113 67 62 23 56 257 202 61 58 95 92 100 82 77 111 46 52 10 11 88 92 74
24 28 25 25 24 29 39 26 17 10 9 26 43 41 32 53 61 41 23 8 39 63 0 -15 -8 0 4 17 33 49 123 123 125 86 67 60 97 88 30 -6 148 53 109 113 116 130 97 99 37 64 43 41 51 55
34 31 28 28 17 35 29 27 11 -3 28 51 45 41 32 24 16 -27 -5 70 96 30 16 -19 16 29 21 5 17 42 52 77 104 106 166 138 104 166 -10 77 58 34 75 101 99 118 97 91 93 85 62 84 92 106
38 36 40 34 34 27 6 0 18 33 52 41 42 64 50 28 19 12 28 62 143 100 -37 -2 28 13 17 3 6 12 49 31 55 106 170 151 173 130 351 271 145 125 169 125 87 83 63 116 5 98 90 114 162 167
39 34 25 20 30 3 8 34 37 46 54 89 62 32 12 19 20 18 -35 -40 -39 -26 0 57 68 86 67 -59 26 3 48 29 44 71 99 135 171 277 175 161 115 7 18 105 95 33 15 -50 -36 7 81 95 131 179
18 23 7 20 15 9 28 42 51 70 85 21 13 -11 -13 -6 -30 -33 -16 1 -10 -17 -4 31 70 80 -16 21 -5 48 -9 -18 2 -3 68 33 147 97 49 63 61 12 0 14 69 0 -34 -25 -17 -41 -24 133 205 207
8 19 5 6 3 9 19 54 92 53 1 4 -11 -15 -18 -21 -19 -10 20 13 36 12 0 90 178 187 72 -18 34 -33 -11 -29 69 107 131 166 143 31 41 2 -32 17 15 14 52 17 -32 -13 -23 84 130 166 166 159
0 12 -1 -5 -9 7 36 54 18 47 40 24 -3 -6 2 1 14 34 70 108 94 76 87 125 147 127 79 78 1 -22 32 94 -2 126 169 51 12 -48 -58 -51 -30 -37 -31 30 36 10 -38 -33 137 171 179 184 150 64
1 6 -1 -19 -26 17 27 24 43 37 19 -2 -3 17 -1 23 21 24 85 95 101 77 149 205 165 38 35 31 -23 12 14 11 68 84 48 -36 -57 -59 -37 -57 0 14 5 22 43 66 144 183 178 158 134 112 69 41
5 -1 -24 -20 5 16 11 9 39 37 -2 7 5 29 30 13 -3 10 36 81 94 98 180 163 121 20 -1 -5 -8 -6 11 -6 -11 5 -49 -30 -32 -55 8 -26 18 36 23 17 65 39 43 73 99 138 83 84 70 89
-2 -26 29 17 -13 -6 8 32 58 29 3 1 12 16 11 8 35 15 34 44 -5 2 57 76 56 40 20 -3 -6 -16 -40 -37 22 -26 -17 -4 -12 -22 -30 -17 11 19 35 53 54 68 93 58 41 52 115 91 69 84
-22 66 -5 -4 13 84 82 88 42 29 14 15 7 1 21 47 114 99 34 51 -7 -15 -3 10 19 20 -15 -31 -67 35 -9 24 -68 -43 -31 27 12 4 -22 -23 1 50 109 61 89 71 53 73 111 119 104 63 75 73
70 -7 11 53 130 111 113 53 26 17 8 -8 25 3 22 71 73 97 62 20 -22 -28 -12 -12 1 24 -22 -20 24 69 -65 -97 -142 -109 -78 -2 -29 -13 -24 -24 -6 54 119 104 58 58 73 84 84 81 101 87 90 75
54 56 76 99 97 90 32 28 4 12 5 -3 22 25 18 46 91 64 20 -26 -10 56 -30 -66 -20 40 60 78 -86 -110 -115 -57 -95 -73 -55 -13 0 -35 -9 -16 15 47 89 77 60 70 84 68 54 74 91 94 99 77
57 58 57 82 55 35 26 14 9 16 25 -3 38 36 5 25 34 29 -2 -13 37 35 71 61 75 -1 0 -53 -75 -42 -35 -8 -53 -65 -61 -23 -52 -56 6 43 45 48 53 45 74 86 89 91 77 83 91 87 91 60
34 25 46 40 16 -10 24 -3 -10 -6 -9 33 -3 30 32 51 51 51 32 20 42 57 43 38 44 17 11 13 17 26 47 61 -26 0 -17 -3 -3 -49 13 38 27 5 38 54 49 36 24 33 52 60 73 73 82 96
12 16 -14 21 15 27 7 17 22 33 46 68 55 53 37 46 32 29 36 29 34 49 52 42 54 42 41 28 19 44 66 60 54 38 33 27 22 23 39 75 54 -7 -3 20 49 51 38 57 82 90 96 94 99 105
87 50 40 63 43 51 26 77 64 83 74 76 89 50 26 39 32 55 34 40 68 87 63 31 12 23 46 52 58 44 47 54 58 51 38 25 24 33 42 75 75 44 28 38 79 104 83 88 94 106 113 117 122 132
52 57 82 88 141 108 125 112 117 94 86 96 64 45 34 32 66 97 83 86 110 149 151 101 71 73 71 81 74 65 23 34 39 60 63 37 25 37 49 71 73 47 78 112 109 101 106 107 113 125 128 130 122 124
55 49 70 88 103 98 103 87 98 106 87 75 79 62 45 71 72 75 104 130 207 204 144 103 58 -6 -9 -18 -12 16 24 14 25 34 36 48 56 52 51 66 77 78 100 126 122 126 120 132 132 133 136 139 131 128
68 67 104 105 115 142 138 152 127 102 112 102 75 70 122 124 115 97 127 195 203 108 55 7 -21 -46 -87 -139 -110 -88 -60 -5 28 20 28 55 57 59 57 62 69 59 93 111 135 135 138 150 150 157 147 135 140 147
112 107 124 110 146 173 172 185 176 170 153 134 103 106 116 91 76 98 120 99 82 3 -32 -61 -72 -94 -100 -84 -65 -35 3 39 59 71 58 77 65 64 62 61 61 89 87 113 142 145 163 168 181 187 153 143 135 137
152 164 161 144 190 190 187 209 182 167 135 142 190 184 150 143 138 141 123 65 46 -10 -25 -14 15 51 46 39 34 25 23 38 56 85 87 88 98 102 77 62 65 95 126 121 125 168 173 170 194 171 146 137 134 112
175 167 224 222 220 254 220 192 199 208 170 201 208 211 183 164 138 88 22 -17 -41 -9 30 40 68 85 80 73 61 61 60 44 46 72 92 100 108 88 75 94 87 104 139 136 129 149 152 158 139 145 151 144 135 132
181 148 230 233 225 219 190 136 159 136 122 114 118 109 91 91 89 114 95 86 79 68 77 78 70 71 50 26 31 49 40 51 56 54 69 61 50 56 78 85 74 92 127 142 144 120 114 138 149 151 149 164 152 142
177 185 185 169 165 145 155 116 118 121 138 106 88 130 134 120 132 143 174 120 112 108 97 87 79 35 34 41 33 39 76 11 44 76 61 60 59 62 86 92 95 98 111 138 162 141 141 150 146 151 149 123 111 119
129 138 155 117 119 140 165 166 143 165 144 150 127 167 189 192 154 139 98 105 97 72 27 29 40 72 67 73 65 80 49 60 73 109 111 88 65 78 102 109 121 130 125 137 146 133 127 136 170 147 121 113 120 122
237 203 197 188 153 157 140 114 109 105 111 130 115 103 115 117 108 69 62 64 27 4 15 29 39 58 35 21 45 38 38 47 52 89 93 66 60 60 77 107 140 154 149 146 159 166 179 197 174 152 141 141 148 159

GFSWCAN_con_3kmhel_186.txt.gz
Helicity
66 69 65 60 53 48 50 51 52 55 58 50 46 49 45 56 68 152 97 122 167 144 94 113 93 109 121 112 104 59 88 95 136 152 144 123 123 120 118 93 103 133 135 178 162 157 128 110 97 155 148 91 95 67
65 70 67 60 54 51 49 47 47 42 48 55 48 44 41 39 49 107 103 131 144 191 143 92 81 78 129 97 128 108 113 114 107 119 118 101 124 159 167 164 171 210 215 156 118 153 174 155 106 70 45 70 41 -9
61 56 51 43 43 41 37 30 30 38 42 33 19 14 10 7 15 88 157 177 243 246 148 111 66 121 115 101 153 151 139 168 155 149 112 117 150 217 216 187 161 123 81 127 80 100 98 97 72 22 22 43 25 0
54 45 39 35 30 27 29 28 39 39 37 34 28 21 13 14 23 106 142 94 89 109 104 104 69 72 64 103 131 157 116 160 141 159 150 170 223 199 216 221 174 156 121 105 59 37 56 8 48 47 4 13 28 4
25 11 17 18 22 25 30 36 37 42 41 37 21 18 29 45 66 111 107 91 102 106 121 39 3 26 94 107 71 102 113 119 128 153 179 175 224 240 271 132 218 247 204 171 191 157 97 59 51 65 41 39 40 -19
0 8 19 20 26 30 29 31 36 34 20 10 8 34 55 69 128 116 60 56 106 109 96 35 18 65 -7 11 69 59 116 118 187 136 156 135 298 205 237 202 409 135 240 278 220 183 69 40 4 75 -39 7 38 33
5 10 20 21 22 21 23 32 34 20 11 14 45 43 55 79 79 59 39 24 48 90 60 18 31 18 -1 6 47 40 124 163 159 146 76 68 63 163 184 133 334 156 114 135 146 82 42 121 93 89 81 -3 -28 20
8 16 22 22 19 13 17 33 28 18 14 30 39 56 52 60 50 10 12 58 72 53 41 9 27 28 8 0 1 51 65 80 108 66 181 42 70 168 81 217 168 114 117 45 63 82 39 9 27 68 134 65 42 86
25 33 32 23 16 7 29 24 17 6 33 54 98 101 61 29 24 20 30 69 146 105 -68 -45 24 -9 7 15 2 26 70 47 128 121 188 127 125 149 337 126 63 83 101 62 67 53 59 45 -46 44 79 51 31 89
38 36 28 20 23 27 24 3 33 49 57 102 65 32 16 14 20 20 -52 -53 -39 -12 33 81 82 113 2 -23 -44 -107 -62 -4 2 72 114 83 137 191 121 88 54 40 29 6 -87 -52 26 41 83 79 40 16 -8 29
39 30 24 18 19 20 -1 38 41 88 81 28 19 14 -10 -4 -36 -36 -19 16 11 49 53 47 70 86 35 16 -10 -23 -73 -45 17 45 103 101 200 132 104 46 97 61 42 45 64 -14 24 41 55 -15 -30 -40 23 86
20 17 14 14 23 7 36 54 97 55 7 7 -1 -15 -22 -25 -15 -5 33 39 49 55 75 64 87 174 124 182 142 55 72 55 203 159 158 230 114 -10 61 47 -16 -113 -73 -24 -49 -47 -26 18 28 13 10 27 84 148
0 -2 3 10 10 26 29 36 18 35 31 35 -2 -10 0 4 45 67 80 79 45 65 112 148 187 151 123 72 26 25 73 145 90 149 231 96 16 31 35 -40 4 -29 14 24 23 47 35 -2 6 -9 19 153 143 164
-5 -4 4 7 1 11 22 34 21 66 27 0 -2 21 11 43 33 46 46 29 59 159 195 229 231 142 88 56 -8 79 68 59 79 88 113 -49 -51 -16 -25 -15 -26 33 40 29 38 48 5 46 61 138 112 111 150 127
-12 0 -2 -10 -8 14 32 59 67 44 5 3 2 27 30 9 -15 -14 -6 43 75 54 99 121 183 47 13 13 29 25 41 49 15 69 -3 -22 12 18 -3 -9 -19 -2 30 15 5 1 47 85 106 119 89 112 66 53
-3 21 48 -20 -10 7 44 108 75 34 5 -5 9 18 0 5 -3 -23 -14 33 -8 17 22 29 71 60 32 0 26 21 -24 7 -23 -82 -64 -54 -44 -22 -2 -31 -17 -19 18 22 38 30 15 49 106 133 192 86 68 68
70 87 17 61 40 34 80 76 45 13 2 11 15 -4 14 21 81 78 27 57 -16 -18 -14 -24 -11 -5 2 -4 -57 18 54 -79 -100 -119 -150 -97 -77 -56 -32 -22 -16 -32 32 37 33 71 76 41 60 72 74 62 77 81
49 8 34 40 50 108 87 41 16 10 10 12 3 -5 14 73 49 57 31 -23 -39 -56 -47 -54 -36 -1 -16 -5 7 -28 -121 -108 -108 -101 -86 -72 -82 -3 -33 -36 -13 -29 41 71 51 31 19 34 48 59 77 74 108 102
32 39 81 84 88 77 29 24 13 19 8 0 10 8 21 24 74 77 -3 -47 -73 6 -37 -13 -66 -43 63 28 -91 -83 -85 -86 -60 -22 -41 -58 -26 -52 -48 -44 -27 -2 21 110 91 64 47 49 58 74 84 80 91 83
51 62 72 69 49 39 27 25 23 11 10 17 46 25 31 49 34 55 43 40 56 64 53 57 51 58 15 3 -28 -90 -83 -80 -92 -69 -44 -31 9 4 -11 -13 41 17 31 77 99 70 69 91 92 93 92 85 104 93
37 34 66 48 29 8 9 12 8 6 0 34 13 33 30 71 81 87 55 48 47 47 53 76 77 45 20 28 28 33 35 22 -1 43 -73 11 12 18 15 15 13 55 41 38 74 74 62 67 75 76 80 87 103 119
29 43 23 28 33 37 31 50 40 40 47 65 76 79 66 70 65 56 52 63 63 69 86 76 57 64 69 47 65 40 35 45 31 18 23 52 40 26 22 23 28 44 67 40 56 37 67 68 82 87 96 104 115 123
76 40 25 42 63 80 59 104 83 79 76 66 88 61 55 61 38 74 45 65 100 116 138 135 121 95 65 49 36 4 -21 -5 10 18 16 30 51 46 46 36 40 41 51 88 102 93 93 109 114 122 127 138 149 157
64 51 57 58 100 85 111 116 138 132 118 102 90 69 60 56 78 110 90 92 106 187 219 178 138 93 57 17 -4 -12 -18 -33 -13 9 16 23 31 33 34 37 48 57 70 81 93 120 133 119 128 138 146 153 154 160
69 75 78 86 80 95 106 87 92 105 93 80 114 98 72 90 78 91 106 126 273 285 246 181 119 61 46 29 -4 -58 -126 -139 -85 -20 22 11 29 30 28 34 40 59 86 99 94 126 149 140 134 129 138 150 156 154
82 94 121 127 133 154 142 146 121 97 123 121 133 132 155 124 154 118 144 152 239 194 146 59 29 9 -11 -44 -88 -100 -76 -19 7 31 68 66 68 72 55 48 45 56 74 92 119 135 130 113 127 130 130 140 158 172
115 108 119 123 133 153 173 191 212 233 239 208 151 130 125 112 94 116 136 118 157 81 15 -42 -80 -80 -86 -70 -18 19 28 24 19 29 33 50 63 75 90 90 81 53 51 88 108 147 161 141 132 138 145 145 170 174
161 188 180 175 195 195 239 251 205 168 162 247 257 262 263 241 204 153 115 70 7 -13 -50 -77 -46 -14 -1 36 45 37 29 30 29 30 42 44 50 70 82 120 97 53 51 80 107 132 152 180 183 185 204 193 204 196
217 207 274 274 278 245 212 178 188 201 277 286 247 217 240 201 182 145 82 61 34 49 44 13 48 96 87 82 54 42 27 16 -10 -23 2 21 42 101 80 77 71 76 65 58 84 127 146 161 183 208 211 231 215 189
404 330 342 330 307 263 157 86 118 190 239 206 219 184 156 122 148 189 170 168 155 108 52 63 95 89 29 8 22 69 47 15 17 1 6 10 38 64 73 98 103 104 88 71 72 115 142 159 186 215 248 260 225 219
237 231 240 220 206 148 136 187 236 258 249 194 164 174 142 136 192 191 198 158 121 123 137 138 93 18 18 18 -1 4 46 39 77 84 94 106 104 106 99 86 77 85 93 69 92 140 154 160 173 190 178 187 187 214
226 217 234 249 201 167 213 218 184 199 149 137 121 142 194 215 193 196 175 142 136 117 73 50 46 57 26 14 29 41 22 51 69 76 70 89 95 92 93 98 84 57 64 62 88 121 148 157 165 153 153 162 178 181
201 207 195 180 149 139 141 158 141 141 139 178 131 88 68 70 91 61 44 60 70 55 61 47 37 10 -26 -16 -10 7 42 65 60 70 68 62 56 48 44 49 33 35 52 66 93 125 139 137 140 132 128 141 162 174

GFSWCAN_con_3kmhel_189.txt.gz
Helicity
40 49 48 53 52 40 32 27 21 14 12 18 29 34 42 55 79 111 68 81 128 102 84 108 89 99 102 107 106 67 79 80 109 124 121 105 106 103 106 69 77 103 103 136 141 152 136 61 53 98 55 52 32 22
68 58 63 76 74 65 60 54 47 48 48 46 45 51 53 45 48 115 89 97 128 143 87 58 85 127 140 98 110 119 137 124 97 111 87 101 126 135 121 90 90 128 155 112 133 185 172 130 80 34 53 74 22 18
72 78 79 73 68 64 53 43 39 43 41 42 37 29 25 25 30 92 100 124 130 133 142 151 134 114 112 123 118 166 144 151 141 136 121 117 120 150 130 111 52 91 128 177 132 131 119 70 12 18 28 44 55 29
72 68 63 57 51 44 40 39 39 37 38 36 34 31 24 15 21 100 126 149 234 87 102 86 107 50 39 63 114 141 101 166 139 134 129 141 150 135 137 159 158 177 157 207 184 164 118 108 94 79 141 100 62 -5
60 53 49 45 43 40 33 27 36 41 34 35 42 35 31 29 48 113 125 93 40 82 105 86 39 75 32 80 114 128 154 148 154 156 137 127 149 161 213 197 313 296 322 267 325 382 200 146 151 181 111 59 37 6
39 36 30 28 22 19 19 25 29 32 35 33 25 16 26 78 110 85 61 59 58 84 61 42 35 52 43 -10 39 76 91 47 46 131 110 115 56 159 133 159 468 306 265 309 338 336 176 140 138 125 65 34 32 -11
28 9 2 12 19 22 24 25 30 32 28 12 11 37 55 77 83 75 56 42 38 66 82 37 8 -5 -13 -52 68 42 94 122 87 103 105 77 167 83 70 217 291 30 165 148 113 60 39 43 38 54 31 27 24 13
-1 2 13 19 24 19 14 18 30 33 18 24 35 31 59 75 55 35 43 50 46 65 69 37 8 22 -19 -34 30 45 63 37 52 83 83 118 44 125 151 249 121 81 50 20 28 33 20 -12 -48 9 18 10 -24 -26
4 11 22 23 18 12 12 20 34 24 25 39 76 99 60 34 33 33 25 58 68 32 -31 13 44 -1 -20 -22 20 -44 27 28 -3 60 118 48 47 130 208 39 8 -27 -99 -89 -42 -26 -15 -42 -58 -64 51 87 -16 12
17 24 29 26 20 18 21 41 20 31 62 83 60 32 19 16 3 -24 -14 12 27 29 103 149 139 105 -8 -16 -30 -65 -43 -19 5 65 67 57 114 187 191 151 49 38 -5 17 12 -54 13 -74 -76 -17 65 110 76 143
34 35 32 27 24 26 34 33 87 82 41 36 28 20 -12 -9 -40 -25 17 51 57 87 88 66 82 47 -1 13 11 -20 -37 2 144 118 145 180 229 162 66 75 47 81 65 23 -42 -45 -42 -50 50 28 82 63 29 18
29 30 29 25 20 26 19 52 34 31 13 10 16 -19 -26 -27 -7 23 37 38 57 66 104 151 139 141 98 102 108 12 56 42 129 155 177 212 137 104 44 49 42 49 -37 33 37 45 24 6 -3 -18 7 -6 -7 19
28 23 22 16 23 24 49 44 39 43 22 33 -5 -15 1 4 31 22 24 37 36 72 145 150 186 201 145 101 35 30 107 171 128 148 180 93 -6 35 64 35 29 20 -28 38 89 61 104 57 38 15 13 0 80 121
12 6 14 25 30 44 41 54 58 53 33 -1 -7 26 12 37 16 22 40 54 50 124 125 110 159 109 96 45 16 60 82 79 75 114 27 -56 -58 -8 -2 -8 -14 24 16 52 44 48 24 15 25 28 25 83 113 135
4 3 12 15 14 29 23 29 43 38 16 3 -5 28 31 10 -22 -6 4 46 52 61 80 118 184 81 47 24 33 9 30 55 31 -68 -52 -39 -63 -45 -44 -32 -7 1 9 41 48 36 26 15 46 61 59 73 123 128
-10 30 47 15 36 37 48 80 51 26 13 -3 7 13 4 13 1 -24 -21 -8 -54 -28 -22 -15 -1 49 27 32 38 35 0 76 -133 -135 -145 -131 -114 -38 -28 -38 -11 -10 -5 15 4 5 -4 2 13 50 96 82 84 32
55 33 -3 28 50 34 51 84 45 15 5 10 14 10 4 18 60 51 1 -2 -20 -46 -59 -66 -48 -39 -12 -8 -10 54 36 -79 -105 -93 -70 -73 -75 -69 -37 -7 -17 -25 8 20 9 1 20 9 39 78 124 81 63 67
-37 -2 67 92 74 119 130 57 12 7 22 20 26 -2 15 65 23 38 -18 96 66 31 13 -37 15 -15 -61 -35 25 -17 -73 -73 -33 -33 -70 -67 -65 -54 -38 -3 0 -20 -13 17 20 33 28 35 28 35 35 42 67 72
11 32 80 98 71 102 29 5 9 -1 22 21 15 0 33 17 69 57 4 67 99 94 60 60 -1 29 38 86 -25 -58 -57 -94 -63 -45 -33 -40 -79 -39 -31 36 26 22 -16 3 53 93 61 35 29 41 41 37 51 55
14 8 12 -17 55 20 7 14 24 31 12 16 61 74 61 79 60 95 68 76 77 85 72 84 92 101 71 69 38 18 33 32 -7 -5 21 34 -24 -20 -26 14 15 40 47 27 5 92 116 90 60 53 64 66 68 61
35 9 -8 -13 26 27 -25 12 19 27 35 51 35 41 38 70 93 103 104 85 94 93 99 77 105 81 69 57 53 43 25 36 29 27 17 11 27 22 28 44 48 38 23 42 24 56 79 95 97 84 78 71 79 90
19 37 23 6 16 23 28 66 66 80 71 77 72 66 62 59 65 74 74 113 98 73 108 120 123 127 128 127 103 53 39 18 6 4 -6 4 18 11 17 19 22 41 36 33 38 55 91 87 93 100 98 97 104 101
72 41 23 32 21 36 31 93 87 97 90 80 97 71 43 55 53 79 53 84 95 124 158 187 186 183 148 138 94 38 19 15 29 10 -10 -11 1 14 29 41 40 31 41 40 45 42 67 90 101 101 109 128 125 128
56 51 45 61 76 59 77 84 94 96 96 103 87 64 66 65 102 121 127 133 129 217 260 267 221 182 140 104 96 71 26 -14 -49 -35 -38 -35 -11 33 45 45 57 62 64 51 46 53 50 74 107 131 111 119 128 140
53 62 62 111 102 109 121 112 115 129 123 106 113 92 99 105 117 151 153 75 159 256 313 233 163 119 91 79 53 22 -31 -69 -69 -51 21 30 27 37 52 61 60 78 118 90 66 67 77 81 98 126 137 119 117 125
109 117 158 154 156 176 200 217 196 189 206 209 183 174 155 160 166 87 120 66 163 274 201 99 76 53 -3 -53 -48 -57 -67 -43 5 22 41 46 52 45 44 51 69 104 105 83 75 75 78 112 120 128 142 122 128 141
117 142 162 125 143 179 236 218 238 261 268 246 231 232 230 175 144 163 190 94 103 86 -5 -131 -247 -209 -119 -104 -108 -55 7 39 34 32 44 46 50 46 47 49 55 60 59 56 69 77 71 74 124 154 155 150 159 161
183 206 211 183 198 210 316 328 289 274 269 276 301 345 321 360 387 271 167 137 78 9 -52 -73 -56 -58 -64 -40 18 49 45 36 26 14 17 34 42 54 49 67 55 47 51 53 53 71 69 67 87 140 160 181 194 183
269 287 285 267 284 295 300 293 304 268 255 255 301 313 335 298 273 237 114 -2 -62 -35 -12 37 104 127 106 97 50 36 4 -9 3 -6 -5 4 19 82 79 82 102 119 94 74 77 79 74 69 57 92 146 176 198 227
272 273 280 292 309 309 303 300 266 219 229 224 238 243 204 160 156 202 190 171 150 135 129 116 114 117 95 72 66 69 33 2 -11 -4 8 20 31 54 69 86 90 103 127 123 89 88 91 65 40 72 125 176 237 257
231 240 265 306 309 251 197 187 200 218 244 210 147 175 181 179 194 201 216 181 158 159 165 187 145 74 25 -4 -18 2 45 21 44 60 61 70 71 69 75 60 46 56 70 112 114 93 91 81 75 86 125 162 180 209
170 178 189 226 196 174 191 189 180 204 173 149 163 210 174 136 115 88 63 93 147 167 140 102 84 56 7 -31 -45 -40 -21 17 42 43 29 48 63 52 57 52 42 36 40 44 53 62 65 67 83 106 129 150 160 180
185 186 181 189 167 174 148 190 151 134 139 143 111 85 78 82 109 25 69 93 84 102 143 141 118 69 16 -23 -43 -38 -26 14 26 16 12 13 14 35 45 36 35 37 37 39 34 39 45 60 104 132 130 133 160 191

GFSWCAN_con_3kmhel_192.txt.gz
Helicity
69 58 66 52 56 56 49 47 41 29 23 19 18 20 31 40 61 51 53 54 61 65 27 51 32 24 28 39 59 90 55 51 61 86 89 72 91 76 83 61 53 86 95 110 93 89 85 70 59 53 54 37 121 90
68 66 58 56 57 49 43 42 37 36 31 29 33 36 33 37 65 60 54 86 75 99 49 64 30 10 15 5 43 79 67 76 82 88 93 108 81 89 62 73 38 79 86 84 91 101 62 64 49 39 64 81 39 34
42 43 50 57 63 62 65 59 56 54 52 51 50 46 45 40 41 74 51 106 111 98 90 73 11 6 40 19 38 123 80 36 67 64 96 104 110 81 92 87 41 46 38 84 52 72 48 17 14 17 23 26 29 42
78 80 80 74 65 57 52 50 50 48 49 42 43 43 22 11 29 53 60 79 95 78 105 60 53 45 35 28 50 57 26 86 83 94 122 123 100 95 69 39 18 20 18 4 10 45 71 69 35 -0 12 38 36 53
78 69 59 51 48 45 42 43 44 46 43 44 44 34 24 27 39 54 75 75 126 84 83 58 34 -8 -11 30 56 74 81 72 111 142 124 95 52 28 45 -9 198 82 73 26 45 104 34 83 80 76 69 54 37 41
57 48 46 45 44 42 42 43 47 44 44 33 33 23 22 29 83 64 43 56 57 67 64 52 43 18 26 8 10 23 21 10 51 83 51 18 73 38 39 161 220 91 37 36 85 56 33 46 75 101 53 58 39 18
39 34 35 37 42 47 46 41 37 29 30 24 1 5 34 66 32 44 68 79 41 51 45 33 19 15 1 11 45 34 27 67 82 62 104 82 42 57 93 243 248 49 29 6 -9 -13 -25 -27 -36 -20 -31 -29 -27 -37
29 25 25 29 29 32 37 30 33 31 25 1 27 38 63 51 52 44 58 52 40 57 54 50 10 -18 -43 -45 -42 26 -7 36 58 73 80 87 23 58 133 231 48 2 -23 -27 -25 -31 -50 -59 -24 -25 -25 -28 -38 -50
23 13 23 23 27 29 25 18 23 27 11 39 61 61 40 30 26 39 19 9 5 3 28 70 43 -14 -36 -53 -57 -47 -7 19 -17 57 63 13 45 73 120 -15 -23 -5 13 12 33 35 -14 -52 -47 3 13 -1 -22 -12
9 15 20 24 24 18 -0 16 28 25 59 59 26 23 19 23 2 -37 -35 7 18 37 57 60 40 16 -32 -40 -55 -62 -42 4 13 14 -22 105 120 152 161 137 37 -0 21 48 -35 14 18 16 -50 -15 -19 -7 -39 48
8 14 24 27 20 14 29 38 33 77 47 16 24 20 22 -4 -33 -27 24 25 28 43 44 62 53 13 -1 -11 -28 -80 -51 -15 115 122 152 234 186 97 47 41 79 70 9 -4 -11 49 85 84 28 -4 -3 5 63 75
19 26 29 21 16 27 39 52 94 58 21 34 34 1 -15 -25 -13 21 19 9 17 28 83 108 80 123 127 195 44 8 29 12 142 138 109 107 88 -10 30 46 71 38 -18 -19 -6 88 55 54 43 50 60 11 -17 -1
21 28 28 21 17 28 38 52 13 43 34 28 -4 -5 -4 -6 21 25 7 8 33 69 88 93 138 109 90 50 6 -6 79 131 80 93 88 41 -67 -60 -50 -29 -27 -34 -0 -10 48 60 46 42 26 56 48 28 9 -4
22 24 20 19 10 22 34 31 44 43 31 7 4 16 12 -2 12 18 23 18 30 106 80 87 138 86 52 65 19 34 48 50 14 1 -44 -65 -96 -86 -56 -33 -54 -9 17 14 60 74 57 54 34 28 -14 -12 32 45
4 6 6 9 19 26 61 37 56 47 25 15 15 28 1 2 -1 6 8 40 35 26 27 59 78 72 74 85 85 33 44 42 12 -57 -123 -121 -87 -57 -28 -23 -20 -2 7 34 48 48 34 38 22 27 22 14 48 125
2 27 13 11 31 44 32 38 44 41 25 15 15 2 3 8 13 -18 -8 1 -35 -29 -25 -64 -43 -31 -3 -11 15 39 -1 112 -63 -136 -149 -104 -68 -65 -43 -14 2 13 6 13 32 31 25 7 2 12 21 23 58 75
3 -2 11 42 41 39 40 48 34 20 19 20 19 6 -2 15 29 5 -27 -27 9 -19 -40 -38 -57 -28 -13 -55 -7 47 11 -54 -97 -49 -8 -68 -92 -69 -41 -11 13 22 5 -6 20 32 30 23 -0 28 44 43 67 43
-35 4 50 49 71 71 84 49 14 9 29 30 7 -3 -15 11 -9 -8 16 55 37 45 37 16 50 36 3 25 44 76 6 -6 -6 4 -69 -83 -63 -49 -46 -12 12 20 27 10 -13 29 20 18 10 13 30 31 40 48
-1 30 78 102 33 14 -24 -31 -1 -1 30 28 10 -10 -23 -4 49 23 -3 83 88 84 97 76 24 41 61 108 103 55 28 19 22 22 3 -14 -3 -36 -32 -20 3 -1 7 -1 10 -18 62 31 15 21 30 47 57 62
24 67 69 22 41 3 -30 -51 -2 -4 -6 34 51 72 69 73 77 86 83 90 99 109 95 105 96 67 105 123 96 80 65 62 44 23 22 23 15 13 16 6 8 7 11 28 32 34 -4 43 55 48 47 46 50 49
-3 -0 -5 6 -6 -12 -14 -15 -8 -1 40 36 51 56 65 71 84 93 89 88 93 124 126 101 96 104 136 131 121 104 92 98 64 23 4 14 35 13 9 17 24 29 21 21 23 35 25 11 24 72 59 62 76 68
-10 7 2 -2 7 6 7 37 37 62 60 71 79 74 68 71 74 64 80 97 115 87 110 91 99 133 155 159 144 144 99 86 66 49 31 21 2 8 9 3 10 23 33 39 35 29 35 33 38 30 84 87 99 109
53 34 24 35 40 53 44 91 68 98 93 104 108 101 90 93 65 91 69 82 82 85 123 137 172 206 198 198 173 133 79 68 69 61 47 20 1 -10 -18 3 21 20 21 31 51 46 46 40 47 46 50 94 105 118
33 54 45 52 66 71 81 87 89 99 109 139 144 149 153 137 149 149 125 88 77 109 138 219 208 169 139 119 106 86 55 46 35 20 -6 -14 -10 -18 15 20 24 31 34 35 48 56 49 54 53 57 62 64 98 117
61 55 70 117 122 140 137 138 153 170 206 216 249 250 257 201 234 223 148 99 203 177 211 246 203 142 105 95 66 6 -14 -32 -4 -7 -52 -43 -9 26 31 34 34 35 43 59 76 65 46 62 64 54 57 71 77 95
37 52 88 122 150 158 177 214 183 174 199 242 270 280 346 265 265 247 163 238 208 185 240 249 172 82 11 -37 -111 -133 -73 9 -6 -44 -66 12 61 49 39 39 39 41 59 71 56 51 58 79 88 76 64 52 70 96
123 129 151 153 186 214 198 193 206 234 298 323 298 287 265 289 310 296 234 203 159 162 197 147 43 -2 -54 -104 -113 -24 4 19 9 -17 15 48 37 37 45 47 45 40 38 38 42 47 52 59 73 91 88 94 75 101
157 183 169 173 220 224 228 255 252 243 248 291 309 366 404 423 328 308 334 247 139 87 98 85 56 -9 4 38 25 1 32 55 47 26 26 27 27 40 35 55 54 39 33 23 17 33 40 51 57 65 82 81 112 113
161 141 162 195 224 230 229 225 245 332 444 392 383 347 350 279 250 182 143 154 152 126 140 140 105 91 73 72 42 58 39 28 25 38 48 42 36 68 63 44 27 28 35 31 41 42 42 44 42 53 64 73 72 116
186 225 242 233 233 225 229 299 317 278 220 200 200 182 172 172 141 181 151 134 128 150 149 132 134 141 144 143 124 101 31 4 -17 -5 10 28 34 46 47 47 44 29 32 36 40 56 65 63 59 55 55 61 70 100
234 232 236 245 257 232 220 186 179 164 166 168 158 165 134 114 155 112 82 79 103 145 179 187 172 161 136 99 76 75 72 22 28 19 -0 14 24 19 13 21 31 33 35 32 39 47 57 61 60 60 57 54 46 85
227 210 217 237 196 167 156 178 148 125 121 128 115 129 131 117 120 100 48 71 106 140 154 135 116 105 89 60 28 4 -12 12 -4 -8 -20 -11 -2 1 -1 6 19 32 36 37 43 51 43 39 45 50 46 32 47 82
229 202 190 189 194 172 132 157 150 146 122 133 118 99 101 94 119 60 55 83 102 114 117 111 98 80 32 7 -8 -13 -37 -38 -23 -39 -60 -29 4 4 16 17 18 25 24 30 43 42 30 29 34 38 40 50 63 75

GFSWCAN_con_3kmhel_198.txt.gz
Helicity
70 67 72 76 80 79 74 70 64 62 56 49 43 30 13 2 -6 31 35 30 52 54 50 44 46 43 57 80 72 87 77 77 68 50 47 37 50 37 31 42 57 67 69 70 85 87 74 42 18 63 74 56 49 57
53 67 78 71 61 62 68 67 64 58 52 42 33 20 6 -1 4 19 19 46 46 44 46 31 25 34 55 42 48 48 68 49 62 58 64 70 80 70 62 46 46 66 61 81 78 101 92 58 55 39 42 63 76 91
75 70 62 61 66 70 72 68 58 50 41 30 21 17 11 6 8 -2 14 30 47 50 35 32 28 29 14 28 9 42 6 23 61 84 86 89 83 79 71 69 93 65 67 73 63 41 72 70 53 55 54 35 28 52
78 77 78 76 75 76 73 64 51 40 30 28 27 25 23 16 13 8 20 42 61 66 60 33 56 46 20 6 30 54 33 19 26 62 76 85 80 81 75 65 68 59 3 -8 -59 -38 -47 -44 -42 -23 -13 -6 -38 -33
99 88 87 84 80 79 75 68 52 48 40 39 40 38 31 22 17 1 10 34 57 57 86 46 24 13 20 37 41 24 34 32 44 56 81 85 58 39 -19 -13 94 83 85 52 54 63 70 68 30 6 -81 -17 -90 -2
99 98 90 87 81 67 57 46 38 39 43 48 45 42 32 23 17 7 23 41 66 89 62 64 31 15 17 35 40 39 50 44 60 87 70 88 29 -35 -17 100 216 94 64 53 13 -70 -138 -151 -126 46 84 58 47 -29
46 44 43 40 34 32 35 40 51 56 53 46 37 29 24 17 1 24 43 2 33 18 73 64 38 28 32 18 26 29 28 5 -11 18 44 54 65 1 44 194 145 18 14 7 -79 -61 -73 -43 5 -34 -5 24 14 -36
37 37 39 44 46 45 46 50 51 48 45 36 24 18 24 36 35 28 31 42 36 31 26 81 83 13 -7 7 4 -15 -12 -14 10 39 72 81 -10 -8 106 149 88 20 -39 -47 -69 -17 62 -23 -36 -48 -53 -43 -26 -1
38 38 41 47 51 50 46 48 47 41 32 28 33 25 17 -0 23 43 55 48 7 -11 19 62 49 36 4 30 8 -2 -14 12 -9 94 103 -18 32 83 114 27 -35 -36 21 66 29 53 -83 -6 -17 -8 -23 -22 -21 -65
38 40 42 42 42 45 42 41 40 28 21 13 -7 21 29 35 52 27 17 -1 -26 -9 26 29 16 21 -9 -9 -14 -17 -4 7 45 86 22 96 172 156 76 29 42 76 62 59 53 -53 -51 -26 60 34 29 22 76 53
28 26 25 26 19 15 27 32 29 26 14 -3 3 21 38 21 13 23 8 1 -23 -16 7 53 148 102 74 51 25 -36 -26 -21 89 59 70 36 34 9 69 93 94 94 71 38 -34 -17 -16 75 64 60 50 56 53 59
20 16 14 10 13 13 27 33 32 -1 2 -4 18 14 23 21 18 7 15 -10 -18 -7 -1 -10 -16 17 47 35 -1 -11 -3 3 52 62 36 52 16 40 62 59 62 65 56 -14 -3 -11 2 28 10 30 71 79 40 47
14 8 13 20 25 30 43 33 28 9 -6 -2 9 39 6 2 17 21 -1 -15 12 -10 -24 6 12 16 -1 -5 9 12 20 52 54 25 18 29 18 39 29 48 36 37 56 -50 14 4 30 31 35 13 50 56 33 20
-4 19 22 24 28 22 24 35 5 -0 15 13 33 6 16 -1 19 -3 -11 8 -8 -5 7 15 23 -9 24 58 30 64 75 47 33 24 69 3 -23 15 38 48 29 18 26 -31 6 28 43 52 70 32 13 26 24 17
14 26 32 29 26 34 40 29 6 20 9 18 24 16 6 20 11 4 -1 3 -3 -3 -1 3 6 8 5 21 43 50 26 -4 68 102 35 -37 -1 37 31 7 -17 -29 -49 -16 -17 5 35 38 37 46 19 7 11 -0
39 61 23 47 22 22 48 29 19 23 18 29 12 12 30 22 3 -9 -5 2 -11 -15 -7 -25 -12 -17 -2 10 21 26 24 43 81 4 14 6 32 28 16 -3 -23 -43 -66 -58 -42 -22 -5 -1 27 15 7 -3 18 16
7 28 59 41 27 46 29 26 26 38 51 49 7 -7 6 -2 -14 -15 -14 -17 -11 -3 -9 -6 -15 -6 20 19 15 58 55 66 102 64 31 37 28 38 26 8 -25 -46 -73 -93 -70 -67 -33 -5 -8 22 14 13 3 12
-12 43 92 78 67 80 78 32 41 60 -4 -2 7 18 -2 2 -17 -18 -10 -0 25 49 40 57 68 56 49 -9 -8 21 28 73 35 23 46 50 52 48 45 20 11 -21 -28 -9 -1 21 7 -1 -3 -2 39 12 15 23
13 43 94 105 34 14 -2 4 -22 -37 -8 -11 -12 -22 -30 -17 -6 8 21 38 39 80 150 128 119 112 80 58 52 29 38 33 44 55 43 24 40 42 17 38 27 16 25 11 11 22 26 20 40 35 48 37 31 22
-10 68 49 10 -18 -24 -12 -37 -40 -29 4 -17 -24 -31 -28 -1 32 60 77 95 140 188 210 231 200 134 68 53 47 56 57 55 37 41 54 86 79 68 43 24 35 19 11 20 32 18 16 18 25 36 33 45 43 66
18 21 32 10 -18 -27 -24 -10 16 6 -27 -0 30 35 67 58 69 86 101 118 209 255 214 164 134 103 115 94 79 84 101 131 109 106 107 85 57 64 65 45 34 12 7 20 19 16 11 13 26 27 26 45 42 52
17 59 16 17 12 23 34 41 71 75 74 72 45 57 71 82 84 99 119 121 178 181 223 156 110 116 131 141 139 127 139 121 100 63 4 -4 38 48 47 43 36 28 19 16 7 12 9 20 27 17 19 22 42 50
59 38 40 53 62 86 79 108 102 102 102 78 48 61 88 97 115 117 141 146 180 153 118 112 183 166 172 154 84 84 130 128 134 116 86 59 48 65 51 43 30 22 20 20 24 28 15 15 25 14 14 28 34 59
73 83 77 83 125 114 139 103 92 78 83 83 101 129 135 123 95 101 134 98 85 84 118 208 210 177 149 114 126 183 254 251 232 204 128 55 106 98 92 91 34 48 52 46 38 27 43 21 16 8 20 37 50 56
61 55 48 69 94 79 71 77 91 89 109 82 69 102 169 109 158 131 91 83 209 252 224 222 216 225 222 245 265 275 227 188 226 160 22 83 157 183 150 136 89 61 58 73 85 69 39 27 29 32 35 41 56 72
88 84 109 138 140 135 109 113 106 100 60 126 173 147 168 143 198 191 218 385 342 324 338 332 322 326 295 153 75 52 83 102 77 32 96 193 165 136 97 68 54 46 62 55 38 64 57 57 55 47 45 54 64 71
138 154 173 128 181 175 184 193 146 117 117 153 194 219 215 220 220 307 258 186 192 125 75 15 -39 -70 -50 3 147 206 163 185 196 165 127 102 74 74 76 67 56 50 33 31 22 40 55 65 64 53 47 52 56 62
157 213 198 200 193 179 143 148 134 143 172 239 280 261 256 274 291 239 195 185 173 109 55 71 202 202 176 150 131 115 123 111 104 101 92 94 93 74 53 43 32 30 21 23 22 24 26 32 45 44 46 45 46 63
191 178 133 128 125 145 155 174 189 214 318 285 270 276 254 238 218 177 238 236 191 142 170 156 148 126 144 138 162 153 127 116 90 75 65 51 41 27 19 9 8 14 19 28 31 26 23 25 24 27 30 41 53 64
138 142 117 130 177 200 187 205 235 294 292 272 272 222 181 199 244 296 243 207 187 177 139 120 114 121 129 129 120 77 54 50 43 45 25 32 39 25 7 -0 1 1 3 11 26 33 38 39 35 36 37 37 33 33
174 184 174 147 143 166 226 294 257 226 208 211 202 178 161 172 269 210 187 153 165 128 109 119 121 127 113 99 81 63 47 46 42 37 52 62 61 51 25 8 -2 -7 -3 13 24 35 42 42 37 37 41 41 39 40
172 166 165 185 162 212 255 243 247 234 196 165 143 129 152 155 154 294 162 137 122 113 120 89 85 88 98 97 87 70 69 75 52 50 87 115 59 13 -13 -30 -25 -15 1 16 25 32 38 33 33 40 43 47 51 49
189 178 171 200 229 224 213 238 218 200 179 147 113 113 145 221 247 269 154 115 111 102 107 104 104 107 115 112 111 140 109 77 64 35 16 26 17 -17 -24 -20 -20 -12 6 15 18 21 27 32 32 34 31 34 50 56

GFSWCAN_con_3kmhel_201.txt.gz
Helicity
38 44 35 28 33 44 48 51 45 41 39 32 27 31 46 52 60 39 46 46 57 92 87 104 101 81 91 99 111 115 107 106 128 125 101 71 83 63 73 79 79 57 58 46 50 69 95 179 139 109 78 42 30 36
54 55 61 62 66 65 51 40 36 30 23 22 19 13 20 18 30 43 22 28 28 47 28 32 26 26 50 60 120 103 125 115 95 122 119 98 99 74 46 64 43 74 72 75 92 112 85 48 57 62 75 61 64 83
52 67 75 67 55 52 44 38 34 34 35 31 28 22 19 27 37 40 20 15 28 31 32 46 48 82 50 43 65 135 67 69 90 68 65 64 88 110 100 88 82 76 77 98 89 65 73 60 52 51 61 50 57 67
74 69 60 54 52 45 40 41 46 44 39 36 29 32 32 29 28 24 27 16 39 42 60 42 27 29 41 71 64 61 57 42 58 90 107 112 124 92 108 116 102 124 8 69 -13 14 -30 30 17 -8 -17 -31 -45 -11
78 73 64 59 53 49 44 51 54 56 51 41 34 33 30 26 18 0 6 14 28 48 50 49 12 52 42 43 59 67 75 74 86 106 109 108 100 79 87 -17 109 91 61 16 63 48 -11 -13 -88 73 -30 -30 73 39
84 77 71 65 65 62 62 67 70 60 45 39 36 33 29 23 18 26 44 40 32 51 59 32 29 32 37 45 47 53 87 94 92 97 48 50 89 -58 -29 107 259 54 3 -23 -15 -68 -96 -76 -84 37 94 108 12 14
91 77 70 62 58 62 64 63 59 52 44 39 33 26 20 19 26 47 32 14 9 35 51 12 -4 13 35 26 44 53 26 24 46 37 38 44 60 -5 36 232 363 106 82 13 -11 38 -45 35 -33 15 -38 -100 -10 108
48 52 52 49 44 45 48 53 54 48 39 29 16 14 19 32 36 26 16 17 2 21 28 19 23 35 16 41 33 -18 -2 -24 -3 8 41 54 -11 4 82 135 87 55 -59 -22 53 43 33 -13 -87 -55 15 47 21 -14
38 38 37 38 41 48 56 54 42 29 18 19 24 17 22 11 13 14 36 27 23 16 12 47 64 8 -6 0 9 1 4 22 12 81 89 -21 15 39 114 73 17 -20 79 68 47 19 26 -53 -49 14 20 45 67 51
35 36 40 47 48 47 42 33 22 16 16 13 6 22 29 18 52 46 30 25 8 -11 3 9 33 65 -5 -10 21 10 -15 -10 38 58 14 57 136 126 31 16 5 52 79 68 3 -39 -13 12 6 30 17 31 54 84
31 36 36 31 30 30 17 5 11 31 19 11 12 13 14 29 17 19 16 2 3 -4 -13 -12 41 48 27 35 9 -35 -26 -33 57 40 41 13 16 14 49 61 50 69 79 88 77 69 -7 14 17 27 43 70 82 52
27 23 20 21 14 -4 5 6 5 -6 -1 2 6 -9 21 21 27 16 5 17 -12 -6 -10 -30 -13 18 22 13 6 13 13 5 36 40 14 -13 -19 53 66 73 73 76 83 88 67 32 -9 8 20 51 25 65 62 62
19 20 19 16 -6 2 14 6 1 32 13 10 12 27 27 12 4 7 35 14 -10 -14 -20 -30 -16 11 -4 -28 -12 -19 6 42 48 27 20 60 -12 63 64 78 66 70 76 63 39 49 -30 -12 12 27 18 6 7 45
21 15 16 13 9 16 15 5 4 -1 22 9 25 25 27 5 15 24 22 -7 -9 -14 2 4 -13 -15 25 15 12 -16 50 56 13 41 100 -22 -46 15 42 65 67 41 31 -86 -46 -52 -47 -27 -11 27 32 22 1 -12
13 16 18 15 18 15 15 36 32 15 22 21 24 26 9 9 11 -9 -20 -35 -20 -19 -10 4 12 25 9 11 20 2 -12 -27 59 108 -8 -66 35 58 53 60 58 24 -35 -64 -106 -54 -67 -59 -28 0 22 11 1 -9
38 46 3 40 31 29 45 34 39 31 23 17 26 13 10 18 18 -12 -25 -22 -7 -4 -9 -15 -6 -1 -5 -2 15 -11 18 18 78 8 -28 63 64 56 50 34 27 37 18 -31 -56 -63 -64 -91 -68 -18 2 13 21 21
22 -2 51 62 49 38 26 44 49 24 29 44 19 3 -6 -2 1 5 -12 -14 1 5 14 15 14 -2 26 33 38 53 101 36 -19 28 43 41 66 62 54 34 19 22 19 13 -1 3 27 35 5 13 -6 14 38 31
-16 5 66 92 99 54 22 24 2 -7 9 40 26 18 8 1 5 -7 -13 23 49 55 64 70 80 109 91 119 102 69 1 -4 -18 -25 -9 37 65 67 58 37 29 22 7 5 3 13 -2 -4 3 9 20 10 26 42
-75 -20 65 126 42 9 -9 -16 1 9 32 13 18 11 -8 8 12 -10 2 71 95 103 140 146 151 179 208 161 93 45 25 28 48 55 57 56 78 63 34 26 35 48 54 45 34 10 6 10 3 5 14 8 20 34
-20 16 74 40 -9 -9 8 18 23 23 50 20 -15 -3 -27 -6 9 41 62 92 138 158 208 278 279 291 267 150 88 70 65 95 108 101 79 100 83 63 46 27 31 31 34 31 38 26 13 16 22 26 17 12 13 38
21 11 23 5 -5 -8 8 29 68 48 37 48 43 26 35 65 97 106 102 132 163 245 280 297 246 208 172 111 144 142 155 151 105 97 94 113 101 107 93 76 62 34 14 11 -15 -5 16 11 11 -3 -7 -7 19 35
26 51 32 24 31 34 53 57 87 101 105 100 87 85 96 100 99 111 148 171 190 181 213 182 183 172 141 133 134 143 131 125 112 116 119 138 143 155 132 102 108 79 18 -8 -13 32 19 3 -18 -15 -13 -14 -5 24
45 56 48 46 39 83 70 98 129 137 112 96 82 54 49 77 73 72 106 98 111 122 135 131 124 112 128 161 174 148 179 241 283 289 239 216 199 204 177 176 155 82 47 53 99 88 30 14 22 -16 -31 -28 -24 5
48 56 52 38 98 106 143 130 128 110 99 119 124 134 138 154 138 162 196 171 140 212 257 247 215 223 230 248 286 300 322 299 292 284 212 168 174 185 169 114 43 69 102 118 140 76 22 -6 -14 -41 -52 -38 -4 23
47 49 62 93 90 111 135 141 135 107 117 105 129 141 155 151 183 204 190 252 341 318 293 313 321 331 307 299 236 184 79 85 121 125 73 169 173 153 129 142 139 132 160 174 98 16 -26 -37 -48 -29 11 26 43 56
71 67 113 144 158 142 109 119 101 105 127 148 177 157 177 195 202 232 335 356 337 312 262 204 140 75 -8 -110 -113 -68 18 104 125 123 144 149 150 154 152 136 109 86 59 29 28 31 32 19 9 19 32 46 57 62
152 174 179 125 167 159 155 155 155 175 198 198 201 188 170 203 258 332 289 276 263 163 95 39 12 18 72 132 161 140 131 128 121 128 121 97 99 93 106 93 70 60 37 23 17 8 6 14 18 21 27 38 48 60
116 176 195 186 187 183 187 188 186 177 145 159 198 192 215 264 327 335 274 248 213 165 140 163 159 139 136 133 146 148 127 117 115 94 76 65 56 60 49 49 34 16 7 -10 -11 -4 1 2 1 4 16 24 32 44
166 171 201 220 224 224 204 199 203 230 290 285 265 300 343 393 320 257 245 236 205 198 221 190 138 111 128 120 105 99 95 98 100 85 86 77 47 20 27 42 47 32 3 -4 7 2 -4 4 9 12 16 24 34 43
156 173 165 185 218 202 175 158 186 234 250 293 313 304 284 251 252 231 253 277 234 210 163 130 100 115 102 100 76 63 71 79 79 89 82 62 37 41 46 37 41 29 -5 -16 -22 -12 1 12 18 26 23 18 17 22
120 126 122 121 140 127 133 191 227 245 261 252 241 270 258 209 251 263 286 217 193 172 152 131 117 97 96 86 87 73 58 76 125 131 113 109 94 67 35 26 21 23 30 23 5 1 10 31 39 43 45 43 45 42
131 145 167 177 151 181 171 173 206 241 242 246 223 203 204 198 186 273 230 215 198 159 119 120 101 77 105 97 94 105 108 143 148 144 98 97 107 99 95 90 48 26 -4 4 14 22 33 44 45 42 42 51 45 45
191 203 217 219 212 206 216 210 194 188 209 202 168 136 132 168 183 245 211 169 182 191 162 120 89 77 72 77 84 102 105 130 115 100 95 90 95 92 76 36 -24 -33 -23 -5 4 1 17 31 25 25 33 42 60 72